Location: ???????
(55.3754°N, 39.3545°E)
Time: 08:51:02
(UTC+00:00)

SJ 16-02 - Pass Details

Date: 14 April 2026
Orbit: 582 x 592 km, 75.0° (Epoch: 9 May)

Event Time Altitude Azimuth Distance (km) Brightness Sun altitude
Rises 22:15:08 0° 324° (NW) 2,831 5.3 -24.0°
Reaches altitude 10° 22:17:56 10° 305° (NW) 1,922 4.1 -23.9°
Enters shadow 22:19:32 16° 285° (WNW) 1,579 3.4 -23.9°
